CCA1247 ZBAA-ZLXY

Flight info

Callsign CCA1247
Flight time N/A
Altitude 38100
Route BOTPU W47 LOVRA
Aircraft B77W/H-SDE1E2E3FGHIJ2J3J4J5M1RWXY/LB1D1

Departure

Time N/A
Airport Beijing Capital International Airport (ZBAA)

Arrival

Time 2026-04-19 04:40
Airport Xi'an Xianyang International Airport (ZLXY)
Time Latitude Longitude Altitude Speed Heading
2026-04-19 04:01 38.24155 109.28426 27789 ft 438 kts 191°
2026-04-19 04:01 38.21126 109.28242 27790 ft 437 kts 191°
2026-04-19 04:02 38.18061 109.28055 27796 ft 438 kts 191°
2026-04-19 04:02 38.15089 109.27872 27785 ft 438 kts 191°
2026-04-19 04:02 38.12033 109.27684 27786 ft 439 kts 191°
2026-04-19 04:02 38.08952 109.27493 27777 ft 440 kts 191°
2026-04-19 04:03 38.05926 109.27309 27782 ft 440 kts 191°
2026-04-19 04:03 38.02905 109.27128 27779 ft 440 kts 191°
2026-04-19 04:03 37.99852 109.26948 27777 ft 440 kts 191°
2026-04-19 04:03 37.96746 109.26763 27782 ft 442 kts 191°
2026-04-19 04:04 37.93696 109.26582 27785 ft 444 kts 191°
2026-04-19 04:04 37.90683 109.26404 27778 ft 444 kts 191°
2026-04-19 04:04 37.87608 109.26223 27789 ft 444 kts 191°
2026-04-19 04:04 37.86032 109.26130 27784 ft 443 kts 191°
2026-04-19 04:05 37.82949 109.25949 27793 ft 442 kts 191°
2026-04-19 04:05 37.79857 109.25767 27777 ft 441 kts 191°
2026-04-19 04:05 37.76817 109.25588 27787 ft 441 kts 191°
2026-04-19 04:05 37.73739 109.25406 27798 ft 442 kts 190°
2026-04-19 04:06 37.70683 109.25226 27787 ft 441 kts 191°
2026-04-19 04:06 37.67612 109.25046 27800 ft 439 kts 190°
2026-04-19 04:06 37.64555 109.24866 27790 ft 440 kts 191°
2026-04-19 04:06 37.61490 109.24685 27791 ft 441 kts 191°
2026-04-19 04:07 37.58397 109.24503 27794 ft 440 kts 191°
2026-04-19 04:07 37.55364 109.24326 27784 ft 439 kts 190°
2026-04-19 04:07 37.52288 109.24146 27784 ft 440 kts 191°
2026-04-19 04:07 37.49218 109.23963 27765 ft 447 kts 190°
2026-04-19 04:08 37.46054 109.23772 27784 ft 462 kts 190°
2026-04-19 04:08 37.42818 109.23580 27781 ft 467 kts 189°
2026-04-19 04:08 37.39571 109.23394 27778 ft 465 kts 190°
2026-04-19 04:08 37.36322 109.23206 27788 ft 467 kts 190°
2026-04-19 04:09 37.33080 109.23019 27781 ft 466 kts 189°
2026-04-19 04:09 37.29882 109.22833 27776 ft 466 kts 189°
2026-04-19 04:09 37.26611 109.22643 27778 ft 466 kts 189°
2026-04-19 04:09 37.23389 109.22456 27771 ft 466 kts 190°
2026-04-19 04:10 37.20162 109.22269 27772 ft 467 kts 189°
2026-04-19 04:10 37.16897 109.22080 27774 ft 464 kts 189°
2026-04-19 04:10 37.14383 109.21936 27775 ft 464 kts 190°
2026-04-19 04:10 37.11219 109.21750 27773 ft 470 kts 189°
2026-04-19 04:11 37.07979 109.21563 27762 ft 467 kts 189°
2026-04-19 04:11 37.04733 109.21376 27765 ft 466 kts 189°
2026-04-19 04:11 37.02107 109.21223 27773 ft 467 kts 189°
2026-04-19 04:11 36.98843 109.21035 27771 ft 467 kts 189°
2026-04-19 04:12 36.95599 109.20848 27778 ft 467 kts 189°
2026-04-19 04:12 36.92350 109.20660 27770 ft 467 kts 189°
2026-04-19 04:12 36.89109 109.20473 27780 ft 467 kts 189°
2026-04-19 04:12 36.85901 109.20290 27779 ft 466 kts 189°
2026-04-19 04:13 36.82656 109.20102 27787 ft 468 kts 189°
2026-04-19 04:13 36.79384 109.19914 27782 ft 468 kts 189°
2026-04-19 04:13 36.76134 109.19727 27784 ft 468 kts 189°
2026-04-19 04:13 36.72888 109.19541 27787 ft 468 kts 189°
2026-04-19 04:14 36.69640 109.19354 27776 ft 468 kts 189°
2026-04-19 04:14 36.66367 109.19167 27785 ft 469 kts 189°
2026-04-19 04:14 36.63100 109.18980 27777 ft 469 kts 189°
2026-04-19 04:14 36.59877 109.18796 27780 ft 468 kts 189°
2026-04-19 04:15 36.56598 109.18608 27778 ft 469 kts 189°
2026-04-19 04:15 36.53341 109.18421 27779 ft 470 kts 189°
2026-04-19 04:15 36.50037 109.18233 27781 ft 469 kts 188°
2026-04-19 04:15 36.46830 109.18052 27763 ft 468 kts 189°
2026-04-19 04:16 36.43570 109.17866 27768 ft 471 kts 189°
2026-04-19 04:16 36.40270 109.17677 27767 ft 470 kts 188°
2026-04-19 04:16 36.36991 109.17487 27767 ft 461 kts 189°
2026-04-19 04:16 36.33845 109.17280 27762 ft 451 kts 189°
2026-04-19 04:17 36.30701 109.17066 27769 ft 448 kts 189°
2026-04-19 04:17 36.27613 109.16856 27768 ft 447 kts 189°
2026-04-19 04:17 36.24487 109.16643 27772 ft 447 kts 189°
2026-04-19 04:17 36.21403 109.16434 27777 ft 444 kts 189°
2026-04-19 04:18 36.18332 109.16229 27786 ft 439 kts 189°
2026-04-19 04:18 36.15293 109.16026 27802 ft 433 kts 189°
2026-04-19 04:18 36.12295 109.15826 27787 ft 428 kts 189°
2026-04-19 04:18 36.09336 109.15628 27760 ft 423 kts 189°
2026-04-19 04:19 36.06400 109.15432 27730 ft 419 kts 190°
2026-04-19 04:19 36.03502 109.15237 27579 ft 418 kts 189°
2026-04-19 04:19 36.00609 109.15043 27396 ft 417 kts 189°
2026-04-19 04:19 35.97697 109.14848 27240 ft 417 kts 189°
2026-04-19 04:20 35.94792 109.14654 27149 ft 415 kts 189°
2026-04-19 04:20 35.91930 109.14463 26981 ft 415 kts 189°
2026-04-19 04:20 35.89090 109.14273 26822 ft 415 kts 189°
2026-04-19 04:20 35.86591 109.14098 26712 ft 413 kts 191°
2026-04-19 04:21 35.84153 109.13668 26520 ft 408 kts 198°
2026-04-19 04:21 35.80922 109.12535 26202 ft 406 kts 204°
2026-04-19 04:21 35.78307 109.11480 26177 ft 403 kts 204°
2026-04-19 04:21 35.75625 109.10397 26162 ft 399 kts 204°
2026-04-19 04:22 35.72996 109.09337 26084 ft 397 kts 204°
2026-04-19 04:22 35.70329 109.08263 25958 ft 397 kts 204°
2026-04-19 04:22 35.67723 109.07217 25761 ft 399 kts 204°
2026-04-19 04:22 35.65040 109.06138 25245 ft 408 kts 203°
2026-04-19 04:23 35.62346 109.05061 25210 ft 405 kts 203°
2026-04-19 04:23 35.59707 109.04006 25204 ft 401 kts 203°
2026-04-19 04:23 35.57039 109.02942 25188 ft 398 kts 203°
2026-04-19 04:23 35.54406 109.01891 25176 ft 394 kts 203°
2026-04-19 04:24 35.51816 109.00859 25143 ft 392 kts 204°
2026-04-19 04:24 35.49213 108.99822 24616 ft 393 kts 203°
2026-04-19 04:24 35.46609 108.98783 23806 ft 397 kts 203°
2026-04-19 04:24 35.43990 108.97742 23381 ft 392 kts 203°
2026-04-19 04:25 35.41364 108.96697 22416 ft 401 kts 203°
2026-04-19 04:25 35.38690 108.95630 21260 ft 414 kts 202°
2026-04-19 04:25 35.35978 108.94553 20500 ft 414 kts 202°
2026-04-19 04:25 35.33260 108.93477 20072 ft 406 kts 202°
2026-04-19 04:26 35.30580 108.92417 19667 ft 398 kts 202°
2026-04-19 04:26 35.27978 108.91388 19158 ft 394 kts 202°
2026-04-19 04:26 35.25379 108.90359 18564 ft 391 kts 202°
2026-04-19 04:26 35.22810 108.89342 17995 ft 388 kts 202°
2026-04-19 04:27 35.20244 108.88329 17526 ft 382 kts 202°
2026-04-19 04:27 35.17753 108.87344 17034 ft 378 kts 202°
2026-04-19 04:27 35.15267 108.86362 16443 ft 376 kts 201°
2026-04-19 04:27 35.12753 108.85369 15825 ft 376 kts 201°
2026-04-19 04:28 35.10316 108.84407 15283 ft 373 kts 201°
2026-04-19 04:28 35.07852 108.83437 14744 ft 369 kts 200°
2026-04-19 04:28 35.05407 108.82473 14197 ft 366 kts 200°
2026-04-19 04:28 35.02983 108.81519 13676 ft 363 kts 200°
2026-04-19 04:29 35.00605 108.80640 13411 ft 353 kts 194°
2026-04-19 04:29 34.98190 108.80437 13271 ft 343 kts 178°
2026-04-19 04:29 34.95918 108.81014 13076 ft 337 kts 164°
2026-04-19 04:30 34.94981 108.81486 13188 ft 337 kts 153°
2026-04-19 04:30 34.94368 108.81908 13092 ft 335 kts 147°
2026-04-19 04:30 34.93095 108.83051 12718 ft 329 kts 141°
2026-04-19 04:31 34.91473 108.84930 12668 ft 315 kts 136°
2026-04-19 04:31 34.90028 108.86883 12633 ft 301 kts 132°
2026-04-19 04:31 34.88723 108.88832 12521 ft 291 kts 130°
2026-04-19 04:31 34.87490 108.90752 12080 ft 292 kts 129°
2026-04-19 04:32 34.86252 108.92718 11643 ft 291 kts 128°
2026-04-19 04:32 34.85020 108.94684 11276 ft 288 kts 128°
2026-04-19 04:32 34.83819 108.96599 10891 ft 286 kts 128°
2026-04-19 04:32 34.82436 108.98306 10450 ft 285 kts 147°
2026-04-19 04:33 34.80586 108.99137 9970 ft 286 kts 171°
2026-04-19 04:33 34.78610 108.99265 9580 ft 285 kts 179°
2026-04-19 04:33 34.76616 108.99204 9130 ft 286 kts 181°
2026-04-19 04:33 34.74632 108.99101 8735 ft 286 kts 182°
2026-04-19 04:34 34.72621 108.98992 8304 ft 287 kts 182°
2026-04-19 04:34 34.70625 108.98883 7856 ft 289 kts 182°
2026-04-19 04:34 34.68618 108.98775 7430 ft 291 kts 183°
2026-04-19 04:34 34.66594 108.98665 7081 ft 289 kts 184°
2026-04-19 04:35 34.64580 108.98556 6673 ft 290 kts 185°
2026-04-19 04:35 34.62649 108.98055 6358 ft 281 kts 209°
2026-04-19 04:35 34.61042 108.96671 6068 ft 285 kts 228°
2026-04-19 04:35 34.59665 108.94940 5614 ft 283 kts 233°
2026-04-19 04:36 34.58390 108.93188 5198 ft 275 kts 234°
2026-04-19 04:36 34.57145 108.91462 4846 ft 265 kts 234°
2026-04-19 04:36 34.55943 108.89821 4493 ft 258 kts 232°
2026-04-19 04:36 34.54622 108.88390 4204 ft 250 kts 223°
2026-04-19 04:37 34.53319 108.87199 4125 ft 226 kts 225°
2026-04-19 04:37 34.52261 108.85805 3644 ft 221 kts 235°
2026-04-19 04:37 34.51253 108.84419 3230 ft 216 kts 233°
2026-04-19 04:37 34.50312 108.83064 2904 ft 205 kts 235°
2026-04-19 04:38 34.49437 108.81813 2696 ft 181 kts 233°
2026-04-19 04:38 34.48666 108.80733 2464 ft 159 kts 233°
2026-04-19 04:38 34.47968 108.79752 2168 ft 147 kts 230°
2026-04-19 04:38 34.47301 108.78839 1994 ft 145 kts 232°
2026-04-19 04:39 34.46650 108.77917 1901 ft 145 kts 229°
2026-04-19 04:39 34.45972 108.76990 1727 ft 146 kts 229°
2026-04-19 04:39 34.45319 108.76084 1583 ft 131 kts 229°
2026-04-19 04:39 34.44804 108.75369 1583 ft 96 kts 229°
2026-04-19 04:40 34.44559 108.75034 1583 ft 22 kts 227°
2026-04-19 04:40 34.44469 108.74910 1583 ft 17 kts 230°
2026-04-19 04:40 34.44430 108.74856 1583 ft 2 kts 228°